Regional Weather Roundup
Issued by NWS

Home | Current Version | Previous Version | Text Only | Print | Product List | Glossary Off
Versions: 1 2 3 4 5 6 7 8 9 10 11 12 13 14 15 16 17 18 19 20 21 22 23 24 25 26 27 28 29 30 31 32 33 34 35 36 37 38 39 40 41 42 43 44 45 46 47 48 49 50

000
ASUS45 KBOI 151510
RWRID
WEATHER ROUNDUP FOR IDAHO
NATIONAL WEATHER SERVICE BOISE ID
900 AM MDT MON SEP 15 2014

NOTE: "FAIR" INDICATES FEW OR NO CLOUDS BELOW 12000 FEET
WITH NO SIGNIFICANT WEATHER AND/OR OBSTRUCTIONS TO VISIBILITY

IDZ012-014-151600-
SOUTHWEST IDAHO


CITY           SKY/WX    TMP DP  RH WIND       PRES   REMARKS
BOISE          MOSUNNY   63  34  33 CALM      30.04R
CALDWELL       MOSUNNY   52  37  58 SE3       30.05R
MOUNTAIN HOME  MOSUNNY   59  35  41 E7        30.05R
$$

IDZ016-017-151600-
SOUTHCENTRAL IDAHO


CITY           SKY/WX    TMP DP  RH WIND       PRES   REMARKS
BURLEY         MOSUNNY   56  42  59 VRB3      30.12R
JEROME         SUNNY     59  38  45 E9        30.11R
TWIN FALLS     SUNNY     64  38  38 S7        30.11R
$$

IDZ019>023-151600-
SOUTHEAST IDAHO


CITY           SKY/WX    TMP DP  RH WIND       PRES   REMARKS
IDAHO FALLS    MOSUNNY   52  38  58 N5        30.17R
POCATELLO      MOSUNNY   56  37  49 CALM      30.16R
REXBURG        MOSUNNY   50  35  56 NE5       30.17R
$$

IDZ006-010-011-018-031-032-151600-
CENTRAL IDAHO MOUNTAINS


CITY           SKY/WX    TMP DP  RH WIND       PRES   REMARKS
MCCALL         SUNNY     46  30  53 CALM      30.16R
HAILEY         MOSUNNY   55  30  38 NW10      30.20S
STANLEY          N/A     37  25  61 CALM      30.31R
SALMON         SUNNY     43  36  75 CALM      30.21R
CHALLIS        SUNNY     48  31  51 CALM      30.23R
$$

IDZ002-004-006-007-026-151600-
NORTHERN IDAHO


CITY           SKY/WX    TMP DP  RH WIND       PRES   REMARKS
LEWISTON       SUNNY     54  36  50 E5        30.02S
LOWELL           N/A     43  39  86 CALM      30.13S
COEUR D`ALENE  SUNNY     52  43  71 NE10      30.05R
MULLAN PASS    SUNNY     53  30  41 S6        30.16S
$$


USA.gov is the U.S. government's official web portal to all federal, state and local government web resources and services.